This demonstration page uses our WeatherBlox Daily Observations layout. Learn more.

Left ArrowRight Arrow

34.16533, -84.80231

Hourly Observations for November 23, 2020

Temp ( °F °C ) Dew Point ( °F °C ) Humidity (%) Winds ( mph kmh ) Pressure ( in mb ) Visibility ( mi km ) Precip ( " mm )
12:17 am 00:17 Mostly Cloudy 54 12.2 50 10 87 87 Calm 30.17 1022 10 16 0.00 0.00
12:53 am 00:53 Cloudy 58 14.4 52 11.1 81 81 Calm 30.15 1021 10 16 0.00 0.00
1:25 am 01:25 Cloudy 58 14.4 52 11.1 81 81 Calm 30.18 1022 10 16 0.00 0.00
1:37 am 01:37 Cloudy 58 14.4 51 10.6 78 78 VRB 5 7 30.18 1022 10 16 0.00 0.00
1:53 am 01:53 Cloudy 58 14.4 49 9.4 72 72 VRB 7 11 30.16 1021 10 16 0.00 0.00
2:53 am 02:53 Cloudy 55 12.8 45 7.2 69 69 undefined N/A 30.17 1022 10 16 0.00 0.00
3:53 am 03:53 Cloudy 51 10.6 42 5.6 71 71 N 8 13 30.20 1023 10 16 0.00 0.00
4:53 am 04:53 Cloudy 49 9.4 39 3.9 69 69 NNW 8 13 30.21 1023 10 16 0.00 0.00
5:53 am 05:53 Cloudy 48 8.9 38 3.3 68 68 N 7 11 30.22 1024 10 16 0.00 0.00
6:53 am 06:53 Cloudy 47 8.3 36 2.2 66 66 N 8 13 30.25 1024 10 16 0.00 0.00
7:53 am 07:53 Mostly Cloudy 47 8.3 36 2.2 66 66 N 13 20 30.26 1025 10 16 0.00 0.00
8:11 am 08:11 Mostly Sunny 47 8.3 36 2.2 66 66 N 13 20 30.29 1026 10 16 0.00 0.00
8:53 am 08:53 Sunny 48 8.9 35 1.7 61 61 N 9 15 30.27 1025 10 16 0.00 0.00
9:53 am 09:53 Sunny 49 9.4 36 2.2 61 61 VRB 6 9 30.28 1025 10 16 0.00 0.00
10:53 am 10:53 undefined 52 11.1 36 2.2 55 55 VRB 3 6 30.28 1025 10 16 0.00 0.00
11:53 am 11:53 Sunny 54 12.2 36 2.2 51 51 N 8 13 30.27 1025 10 16 0.00 0.00
12:53 pm 12:53 Sunny 56 13.3 34 1.1 44 44 NNW 10 17 30.24 1024 10 16 0.00 0.00
1:53 pm 13:53 Sunny 59 15 33 0.6 38 38 N 8 13 30.22 1023 10 16 0.00 0.00
2:53 pm 14:53 Sunny 59 15 31 -0.6 35 35 N 10 17 30.21 1023 10 16 0.00 0.00
3:53 pm 15:53 Sunny 58 14.4 29 -1.7 33 33 VRB 7 11 30.21 1023 10 16 0.00 0.00
4:53 pm 16:53 Sunny 55 12.8 29 -1.7 37 37 NNW 5 7 30.22 1023 10 16 0.00 0.00
5:53 pm 17:53 Clear 51 10.6 31 -0.6 46 46 N 6 9 30.24 1024 10 16 0.00 0.00
6:53 pm 18:53 Clear 49 9.4 31 -0.6 50 50 Calm 30.24 1024 10 16 0.00 0.00
7:53 pm 19:53 Clear 46 7.8 32 0 58 58 Calm 30.24 1024 10 16 0.00 0.00
8:53 pm 20:53 Clear 41 5 32 0 70 70 Calm 30.23 1024 10 16 0.00 0.00
9:53 pm 21:53 Clear 41 5 33 0.6 73 73 Calm 30.24 1024 10 16 0.00 0.00
10:53 pm 22:53 Clear 39 3.9 32 0 76 76 Calm 30.24 1024 10 16 0.00 0.00
11:53 pm 23:53 Clear 36 2.2 32 0 86 86 Calm 30.24 1024 10 16 0.00 0.00

Powered by AerisWeather